EW3197 Weather Reports


Display with metric or nautical units.
time (UTC)temp
F
wind
direction
speed
MPH
gust
MPH
rain 1hr
in
rain 24hr
in
rain mn
in
humidity
%
barometer
mb
20260508122705 48 230 2.0 5.0 0.00 0.00 0.00 62 1012.0
20260508122205 48 315 3.0 10.0 0.00 0.00 0.00 61 1012.0
20260508121706 48 292 3.0 8.0 0.00 0.00 0.00 63 1012.0
20260508121205 48 224 1.0 5.0 0.00 0.00 0.00 62 1011.9
20260508120704 47 289 1.0 8.0 0.00 0.00 0.00 62 1011.9
20260508120205 47 276 2.0 6.0 0.00 0.00 0.00 64 1011.9
20260508115704 47 286 2.0 3.0 0.00 0.00 0.00 65 1011.9
20260508115204 46 278 1.0 3.0 0.00 0.00 0.00 67 1011.8
20260508114204 45 276 1.0 3.0 0.00 0.00 0.00 75 1011.9
20260508113704 44 276 0.0 2.0 0.00 0.00 0.00 78 1011.9
20260508112704 42 276 0.0 1.0 0.00 0.00 0.00 78 1012.1
20260508112205 42 276 0.0 0.0 0.00 0.00 0.00 78 1012.0
20260508111704 41 276 0.0 0.0 0.00 0.00 0.00 79 1011.9
20260508111204 41 276 0.0 0.0 0.00 0.00 0.00 79 1011.9
20260508110705 41 276 0.0 0.0 0.00 0.00 0.00 80 1011.8
20260508110204 40 276 0.0 0.0 0.00 0.00 0.00 81 1011.8
20260508105703 40 276 0.0 0.0 0.00 0.00 0.00 82 1011.8
20260508105204 40 276 0.0 0.0 0.00 0.00 0.00 82 1011.7
20260508104704 39 276 0.0 0.0 0.00 0.00 0.00 82 1011.7
20260508104204 39 276 0.0 0.0 0.00 0.00 0.00 83 1011.5
20260508103704 38 276 0.0 0.0 0.00 0.00 0.00 83 1011.4
20260508103205 38 276 0.0 0.0 0.00 0.00 0.00 84 1011.4
20260508102704 38 276 0.0 0.0 0.00 0.00 0.00 84 1011.3
20260508102204 37 276 0.0 0.0 0.00 0.00 0.00 84 1011.2
20260508101706 37 276 0.0 0.0 0.00 0.00 0.00 84 1011.2
20260508101204 37 276 0.0 0.0 0.00 0.00 0.00 84 1011.1
20260508100704 36 276 0.0 0.0 0.00 0.00 0.00 84 1011.0
20260508100204 37 276 0.0 0.0 0.00 0.00 0.00 84 1010.9
20260508095204 36 276 0.0 0.0 0.00 0.00 0.00 84 1010.8
20260508094204 37 276 0.0 0.0 0.00 0.00 0.00 84 1010.8
20260508093705 37 276 0.0 0.0 0.00 0.00 0.00 83 1010.9
20260508093204 37 276 0.0 0.0 0.00 0.00 0.00 83 1010.8
20260508092204 37 276 0.0 0.0 0.00 0.00 0.00 83 1010.7
20260508091704 38 276 0.0 0.0 0.00 0.00 0.00 83 1010.6
20260508091204 38 276 0.0 0.0 0.00 0.00 0.00 82 1010.5
20260508090704 38 276 0.0 0.0 0.00 0.00 0.00 82 1010.5
20260508085704 39 276 0.0 0.0 0.00 0.00 0.00 81 1010.6
20260508084704 40 276 0.0 0.0 0.00 0.00 0.00 81 1010.5
20260508084204 40 276 0.0 0.0 0.00 0.00 0.00 81 1010.5
20260508083705 40 276 0.0 0.0 0.00 0.00 0.00 81 1010.4
20260508083204 41 276 0.0 0.0 0.00 0.00 0.00 80 1010.4
20260508082704 41 276 0.0 0.0 0.00 0.00 0.00 80 1010.5
20260508082204 41 276 0.0 0.0 0.00 0.00 0.00 81 1010.5
20260508081704 41 276 0.0 0.0 0.00 0.00 0.00 81 1010.4
20260508081204 41 276 0.0 0.0 0.00 0.00 0.00 81 1010.4
20260508080204 41 276 0.0 0.0 0.00 0.00 0.00 80 1010.4
20260508075704 41 276 0.0 0.0 0.00 0.00 0.00 80 1010.4
20260508074704 40 276 0.0 0.0 0.00 0.00 0.00 81 1010.2
20260508074204 40 276 0.0 0.0 0.00 0.00 0.00 81 1010.3
20260508073704 40 276 0.0 0.0 0.00 0.00 0.00 82 1010.3
20260508072705 40 276 0.0 0.0 0.00 0.00 0.00 82 1010.2
20260508072204 40 276 0.0 0.0 0.00 0.00 0.00 82 1010.3
20260508070204 39 276 0.0 0.0 0.00 0.00 0.00 83 1010.3
20260508065703 39 276 0.0 0.0 0.00 0.00 0.00 83 1010.3
20260508065205 39 276 0.0 0.0 0.00 0.00 0.00 83 1010.3
20260508064703 38 276 0.0 0.0 0.00 0.00 0.00 83 1010.3
20260508064204 38 276 0.0 0.0 0.00 0.00 0.00 82 1010.2
20260508063704 38 276 0.0 0.0 0.00 0.00 0.00 82 1010.2
20260508063204 38 276 0.0 0.0 0.00 0.00 0.00 82 1010.3
20260508062704 38 276 0.0 0.0 0.00 0.00 0.00 82 1010.2
20260508062205 38 276 0.0 0.0 0.00 0.00 0.00 82 1010.1
20260508061204 38 276 0.0 0.0 0.00 0.00 0.00 82 1009.7
20260508060204 37 276 0.0 0.0 0.00 0.00 0.00 83 1009.4
20260508055205 38 276 0.0 0.0 0.00 0.00 0.00 82 1009.6
20260508054704 38 276 0.0 0.0 0.00 0.00 0.00 82 1009.6
20260508054204 38 276 0.0 0.0 0.00 0.00 0.00 82 1009.6
20260508053704 38 276 0.0 0.0 0.00 0.00 0.00 82 1009.7
20260508053204 38 276 0.0 0.0 0.00 0.00 0.00 83 1009.7
20260508052204 37 276 0.0 0.0 0.00 0.00 0.00 83 1009.6
20260508051704 37 276 0.0 0.0 0.00 0.00 0.00 83 1009.6
20260508051204 37 276 0.0 0.0 0.00 0.00 0.00 84 1009.6
20260508050704 36 276 0.0 0.0 0.00 0.00 0.00 83 1009.5
20260508045704 36 276 0.0 0.0 0.00 0.00 0.00 83 1009.6
20260508045203 36 276 0.0 0.0 0.00 0.00 0.00 83 1009.6
20260508044704 36 276 0.0 0.0 0.00 0.00 0.00 83 1009.6
20260508044204 36 276 0.0 0.0 0.00 0.00 0.00 83 1009.6
20260508043704 36 276 0.0 0.0 0.00 0.00 0.00 83 1009.6
20260508043204 36 276 0.0 0.0 0.00 0.00 0.00 83 1009.8
20260508042704 36 276 0.0 0.0 0.00 0.00 0.00 83 1009.8
20260508042204 36 276 0.0 0.0 0.00 0.00 0.00 82 1009.9
20260508041704 36 276 0.0 0.0 0.00 0.00 0.00 82 1009.8
20260508041204 37 276 0.0 0.0 0.00 0.00 0.00 82 1009.7
20260508040704 37 276 0.0 0.0 0.00 0.00 0.00 82 1009.7
20260508040204 37 276 0.0 0.0 0.00 0.00 0.00 82 1009.7
20260508035703 37 276 0.0 0.0 0.00 0.00 0.00 82 1009.7
20260508034704 37 276 0.0 0.0 0.00 0.00 0.00 82 1009.8
20260508034203 37 276 0.0 0.0 0.00 0.00 0.00 81 1009.9
20260508033204 38 276 0.0 0.0 0.00 0.00 0.00 81 1009.9
20260508032704 38 276 0.0 0.0 0.00 0.00 0.00 80 1009.9
20260508032204 38 276 0.0 0.0 0.00 0.00 0.00 80 1010.0
20260508031704 38 276 0.0 0.0 0.00 0.00 0.00 80 1010.0
20260508031203 38 276 0.0 0.0 0.00 0.00 0.00 80 1010.0
20260508030704 38 276 0.0 0.0 0.00 0.00 0.00 80 1009.9
20260508025704 39 276 0.0 0.0 0.00 0.00 0.00 79 1010.0
20260508025204 39 276 0.0 0.0 0.00 0.00 0.00 79 1010.1
20260508024705 39 276 0.0 0.0 0.00 0.00 0.00 79 1010.1
20260508024203 39 276 0.0 0.0 0.00 0.00 0.00 78 1010.0
20260508023704 40 276 0.0 0.0 0.00 0.00 0.00 78 1010.0
20260508023204 40 276 0.0 0.0 0.00 0.00 0.00 78 1010.1
20260508022204 40 276 0.0 0.0 0.00 0.00 0.00 77 1010.0
20260508021704 41 276 0.0 0.0 0.00 0.00 0.00 76 1010.1
20260508021204 41 276 0.0 0.0 0.00 0.00 0.00 76 1010.1
20260508020204 41 276 0.0 0.0 0.00 0.00 0.00 76 1009.9
20260508015204 42 276 0.0 0.0 0.00 0.00 0.00 75 1009.8
20260508014706 42 276 0.0 0.0 0.00 0.00 0.00 74 1009.8
20260508014204 43 276 0.0 0.0 0.00 0.01 0.00 73 1009.8
20260508013704 43 276 0.0 0.0 0.00 0.01 0.00 72 1009.7
20260508012704 43 276 0.0 0.0 0.00 0.01 0.00 70 1009.6
20260508012204 44 276 0.0 0.0 0.00 0.01 0.00 69 1009.6
20260508011704 44 276 0.0 0.0 0.00 0.02 0.00 68 1009.6
20260508010704 45 276 0.0 0.0 0.00 0.03 0.00 66 1009.4
20260508010204 46 276 0.0 0.0 0.00 0.03 0.00 65 1009.3
20260508005704 46 276 1.0 3.0 0.00 0.04 0.00 61 1009.3
20260508005205 47 276 0.0 3.0 0.00 0.04 0.00 64 1009.2
20260508004704 47 320 0.0 0.0 0.00 0.04 0.00 63 1009.1
20260508003704 48 320 0.0 5.0 0.00 0.04 0.00 59 1009.0
20260508003204 48 310 0.0 0.0 0.00 0.04 0.00 61 1008.9
20260508002705 49 310 0.0 0.0 0.00 0.04 0.00 59 1008.8
20260508002204 50 310 1.0 2.0 0.00 0.04 0.00 55 1008.9
20260508001703 51 310 0.0 0.0 0.00 0.04 0.00 52 1008.8
20260508001204 51 310 0.0 3.0 0.00 0.05 0.00 49 1008.7
20260508000704 52 310 1.0 3.0 0.00 0.05 0.00 48 1008.7
20260508000205 52 306 1.0 3.0 0.00 0.05 0.00 47 1008.8
20260507235704 52 314 2.0 3.0 0.00 0.05 0.00 46 1008.7
20260507234704 53 301 1.0 5.0 0.00 0.05 0.00 46 1008.6
20260507233704 53 275 2.0 9.0 0.00 0.05 0.00 46 1008.5
20260507233203 53 314 2.0 8.0 0.00 0.05 0.00 45 1008.5
20260507232704 54 293 2.0 3.0 0.00 0.06 0.00 45 1008.4
20260507232204 54 321 2.0 7.0 0.00 0.06 0.00 44 1008.3
20260507231703 54 300 2.0 5.0 0.00 0.06 0.00 45 1008.3
20260507231204 55 293 2.0 8.0 0.00 0.06 0.00 44 1008.3
20260507230704 55 288 3.0 9.0 0.00 0.06 0.00 44 1008.2
20260507230204 55 260 2.0 9.0 0.00 0.06 0.00 43 1008.3
20260507225703 55 5 4.0 15.0 0.00 0.06 0.00 44 1008.2
20260507225203 55 306 1.0 8.0 0.00 0.06 0.00 45 1008.2
20260507224705 55 258 2.0 5.0 0.00 0.06 0.00 44 1008.1
20260507224204 55 293 3.0 12.0 0.00 0.06 0.00 43 1008.2
20260507223704 56 247 3.0 9.0 0.00 0.06 0.00 44 1008.2
20260507223203 56 230 2.0 7.0 0.00 0.06 0.00 43 1008.2
20260507222704 56 267 2.0 7.0 0.00 0.06 0.00 43 1008.2
20260507222204 56 225 1.0 10.0 0.00 0.06 0.00 46 1008.2
20260507221704 56 310 1.0 12.0 0.00 0.06 0.00 45 1008.1
20260507221204 56 312 4.0 9.0 0.00 0.06 0.00 44 1008.2
20260507220704 56 290 6.0 16.0 0.00 0.06 0.00 44 1008.4
20260507220203 56 295 3.0 10.0 0.00 0.06 0.00 44 1008.3
20260507215704 57 292 3.0 9.0 0.00 0.06 0.00 44 1008.2
20260507215204 57 294 3.0 9.0 0.00 0.06 0.00 45 1008.2
20260507214704 57 320 4.0 9.0 0.00 0.06 0.00 46 1008.1
20260507214203 57 309 2.0 9.0 0.00 0.06 0.00 47 1008.2
20260507213703 57 323 2.0 9.0 0.00 0.06 0.00 46 1008.1
20260507213204 56 293 3.0 10.0 0.00 0.06 0.00 46 1008.1
20260507212704 56 290 1.0 6.0 0.00 0.06 0.00 46 1008.1
20260507212204 55 218 3.0 15.0 0.00 0.06 0.00 46 1008.1
20260507211704 56 336 3.0 12.0 0.00 0.06 0.00 44 1008.1
20260507211204 57 306 2.0 15.0 0.00 0.06 0.00 46 1008.1
20260507210204 58 306 5.0 14.0 0.00 0.06 0.00 44 1008.1
20260507205704 59 302 3.0 12.0 0.00 0.06 0.00 44 1007.9
20260507205204 58 255 3.0 12.0 0.00 0.06 0.00 43 1007.9
20260507204204 57 42 3.0 12.0 0.00 0.06 0.00 48 1007.8
20260507203703 57 284 5.0 10.0 0.00 0.06 0.00 45 1008.0
20260507203204 57 302 3.0 12.0 0.00 0.06 0.00 44 1007.9
20260507202704 59 319 6.0 12.0 0.00 0.06 0.00 43 1007.9
20260507202203 59 311 6.0 12.0 0.00 0.06 0.00 42 1007.9
20260507201704 58 328 3.0 12.0 0.00 0.06 0.00 44 1008.0
20260507201203 59 309 3.0 12.0 0.00 0.06 0.00 42 1008.1
20260507200704 60 231 3.0 12.0 0.00 0.06 0.00 42 1008.0
20260507195204 58 304 3.0 10.0 0.00 0.07 0.00 47 1008.2
20260507194704 57 305 3.0 12.0 0.00 0.07 0.00 43 1008.2
20260507193704 60 302 3.0 9.0 0.00 0.07 0.00 41 1008.2
20260507193203 60 311 3.0 8.0 0.00 0.08 0.00 43 1008.2
20260507192704 60 225 3.0 8.0 0.00 0.08 0.00 45 1008.3
20260507192204 57 226 3.0 12.0 0.00 0.09 0.00 45 1008.4
20260507191704 56 283 4.0 13.0 0.00 0.10 0.00 47 1008.5
20260507191204 58 356 5.0 12.0 0.00 0.12 0.00 44 1008.5
20260507190704 59 238 3.0 9.0 0.00 0.13 0.00 42 1008.4
20260507190203 58 300 3.0 9.0 0.00 0.13 0.00 46 1008.6
20260507185704 57 253 2.0 9.0 0.00 0.14 0.00 46 1008.6
20260507185204 59 253 3.0 14.0 0.00 0.15 0.00 43 1008.7
20260507184704 60 263 2.0 6.0 0.00 0.15 0.00 44 1008.6
20260507184204 59 254 4.0 10.0 0.00 0.16 0.00 47 1008.7
20260507183704 58 301 3.0 10.0 0.00 0.16 0.00 45 1008.8
20260507183204 56 319 6.0 15.0 0.00 0.17 0.00 45 1008.9
20260507182704 56 295 4.0 14.0 0.00 0.17 0.00 46 1008.9
20260507182204 56 297 3.0 10.0 0.00 0.17 0.00 46 1009.0
20260507181704 56 328 3.0 9.0 0.00 0.18 0.00 47 1009.0
20260507180704 56 311 2.0 8.0 0.00 0.18 0.00 47 1009.3
20260507175704 55 295 2.0 8.0 0.00 0.18 0.00 49 1009.3
20260507175204 56 257 2.0 14.0 0.00 0.19 0.00 48 1009.4
20260507174704 57 284 5.0 12.0 0.00 0.19 0.00 44 1009.5
20260507174204 58 300 3.0 12.0 0.00 0.20 0.00 47 1009.5
20260507173704 58 329 4.0 12.0 0.00 0.20 0.00 44 1009.4
20260507173205 58 317 1.0 12.0 0.00 0.20 0.00 46 1009.3
20260507172704 56 314 3.0 13.0 0.00 0.20 0.00 50 1009.5
20260507172204 56 317 4.0 12.0 0.00 0.21 0.00 46 1009.4
20260507170704 57 267 3.0 14.0 0.00 0.22 0.00 46 1009.5
20260507170204 58 301 2.0 12.0 0.00 0.23 0.00 48 1009.5
20260507165704 56 10 4.0 12.0 0.00 0.24 0.00 47 1009.5
20260507165204 57 245 3.0 10.0 0.00 0.25 0.00 46 1009.5
20260507164704 57 225 3.0 6.0 0.00 0.26 0.00 46 1009.7
20260507164204 57 306 3.0 10.0 0.00 0.27 0.00 48 1009.6
20260507163703 56 221 3.0 12.0 0.00 0.27 0.00 49 1009.8
20260507162704 55 119 3.0 8.0 0.00 0.29 0.00 50 1009.9
20260507162204 55 256 5.0 9.0 0.00 0.29 0.00 48 1010.0
20260507161704 55 284 5.0 12.0 0.00 0.30 0.00 48 1010.1
20260507161204 55 225 3.0 8.0 0.00 0.30 0.00 48 1010.2
20260507160704 55 276 3.0 13.0 0.00 0.30 0.00 47 1010.2
20260507160204 54 300 6.0 13.0 0.00 0.31 0.00 48 1010.4
20260507155204 54 265 5.0 15.0 0.00 0.31 0.00 48 1010.5
20260507154704 54 296 5.0 13.0 0.00 0.31 0.00 46 1010.4
20260507154204 54 349 3.0 10.0 0.00 0.31 0.00 48 1010.5
20260507153704 54 330 2.0 9.0 0.00 0.31 0.00 51 1010.5
20260507153203 54 232 5.0 14.0 0.00 0.31 0.00 46 1010.6
20260507152704 54 209 3.0 8.0 0.00 0.31 0.00 50 1010.5
20260507152204 53 246 4.0 12.0 0.00 0.31 0.00 50 1010.7
20260507151204 53 314 5.0 10.0 0.00 0.31 0.00 49 1010.7
20260507150704 54 266 3.0 10.0 0.00 0.31 0.00 50 1010.7
20260507150203 53 307 8.0 13.0 0.00 0.31 0.00 48 1010.6
20260507145705 53 329 4.0 12.0 0.00 0.31 0.00 49 1010.5
20260507145203 53 277 3.0 6.0 0.00 0.31 0.00 50 1010.5
20260507144203 52 320 4.0 13.0 0.00 0.31 0.00 50 1010.6
20260507143703 52 329 5.0 15.0 0.00 0.31 0.00 50 1010.6
20260507143204 52 310 6.0 12.0 0.00 0.31 0.00 51 1010.6
20260507142704 52 233 2.0 7.0 0.00 0.31 0.00 53 1010.6
20260507142204 51 236 4.0 12.0 0.00 0.31 0.00 49 1010.7
20260507141704 51 260 3.0 12.0 0.00 0.31 0.00 51 1010.7
20260507141203 51 226 2.0 9.0 0.00 0.31 0.00 52 1010.8
20260507140704 51 238 3.0 13.0 0.00 0.31 0.00 51 1010.8
20260507135704 51 270 4.0 13.0 0.00 0.31 0.00 53 1010.8
20260507135204 51 296 4.0 13.0 0.00 0.31 0.00 53 1010.7
20260507134703 50 235 3.0 12.0 0.00 0.31 0.00 55 1010.7
20260507133704 50 294 3.0 12.0 0.00 0.31 0.00 56 1010.7
20260507133204 49 321 4.0 8.0 0.00 0.31 0.00 55 1010.6
20260507132704 49 318 4.0 12.0 0.00 0.31 0.00 59 1010.7
20260507131704 49 304 3.0 8.0 0.00 0.31 0.00 59 1010.9
20260507131204 49 281 3.0 9.0 0.00 0.31 0.00 58 1010.8
20260507130704 49 311 3.0 8.0 0.00 0.31 0.00 61 1010.7
20260507130204 49 311 2.0 13.0 0.00 0.31 0.00 60 1010.6
20260507125703 48 308 3.0 12.0 0.00 0.31 0.00 61 1010.6
20260507125204 48 281 2.0 3.0 0.00 0.31 0.00 62 1010.7
20260507124204 48 305 3.0 10.0 0.00 0.31 0.00 62 1010.6
20260507123704 48 255 4.0 9.0 0.00 0.31 0.00 63 1010.6
20260507123204 47 217 3.0 8.0 0.00 0.31 0.00 64 1010.6